Overview Statistics Trail Chart Weather Telemetry Raw packets
 

This is the latest recevied weather packets stored in our database for station/object OK2VOP-6. If no packets are shown the sender has not sent any weather packets the latest 10 day(s).

<< 2 3 4 5 6 7 8 >>
Time Temp. Humidity Pressure Rain* Wind** Luminosity Snow
1788603575 21.67° C 35% - 0 mm - - -
1788602370 20.56° C 36% - 0 mm - - -
1788601165 20.56° C 40% - 0 mm - - -
1788599960 20° C 44% - 0 mm - - -
1788598756 19.44° C 47% - 0 mm - - -
1788597551 18.33° C 52% - 0 mm - - -
1788596346 17.78° C 54% - 0 mm - - -
1788595141 16.67° C 54% - 0 mm - - -
1788593936 16.67° C 57% - 0.25 mm - - -
1788592732 16.67° C 56% - 0.25 mm - - -
1788591528 16.67° C 55% - 0.25 mm - - -
1788590322 16.67° C 54% - 0 mm - - -
1788589117 16.67° C 56% - 0 mm - - -
1788587913 17.22° C 60% - 0 mm - - -
1788586708 17.22° C 62% - 0.25 mm - - -
1788585503 17.78° C 62% - 0.51 mm - - -
1788584298 17.78° C 58% - 0.51 mm - - -
1788583093 17.78° C 55% - 0.25 mm - - -
1788581888 19.44° C 44% - 0 mm - - -
1788579478 20.56° C 37% - 0 mm - - -
1788578273 20.56° C 32% - 0 mm - - -
1788577068 20.56° C 32% - 0 mm - - -
1788575864 21.11° C 31% - 0 mm - - -
1788574659 21.11° C 30% - 0 mm - - -
1788573454 21.11° C 31% - 0 mm - - -

* Rain latest hour (hover to see other rain measurements)
** Current wind speed in m/s (hover to see current wind gust speed)